Regional Weather Roundup
Issued by NWS

Home | Current Version | Previous Version | Graphics & Text | Print | Product List | Glossary On
Versions: 1 2 3 4 5 6 7 8 9 10 11 12 13 14 15 16 17 18 19 20 21 22 23 24 25 26 27 28 29 30 31 32 33 34 35 36 37 38 39 40 41 42 43 44 45 46 47 48 49 50
000
ASUS43 KLMK 091402
RWRKY
KENTUCKY REGIONAL WEATHER ROUNDUP
NATIONAL WEATHER SERVICE LOUISVILLE KY
900 AM EST TUE FEB 09 2016

NOTE "FAIR" INDICATES FEW OR NO CLOUDS BELOW 12,000 FEET
WITH NO SIGNIFICANT WEATHER AND/OR OBSTRUCTIONS TO VISIBILITY.

KYZ001>023-026-027-061>063-070>075-091500-
WESTERN AND SOUTH CENTRAL KENTUCKY

CITY           SKY/WX    TMP DP  RH WIND       PRES   REMARKS
PADUCAH        LGT SNOW  22  15  75 NW7       29.94R WCI  13
HENDERSON      CLOUDY    21  14  73 W16       29.91R WCI   7
OWENSBORO      CLOUDY    22  16  78 NW8       29.90R WCI  13
HOPKINSVILLE   NOT AVBL
BOWLING GREEN  CLOUDY    23  16  74 W9        29.89S WCI  13
GLASGOW        NOT AVBL
$$

KYZ024-025-028>034-038-045-046-053-091500-
NORTH CENTRAL KENTUCKY

CITY           SKY/WX    TMP DP  RH WIND       PRES   REMARKS
LOUISVILLE/SDF FLURRIES  23  16  74 W9        29.84R WCI  13
LOUISVILLE/LOU CLOUDY    22  14  71 W13       29.84R WCI  10
FORT KNOX      LGT SNOW  20  15  81 W8        29.82R WCI  11
$$

KYZ035>037-039>044-047>052-055>060-089>105-091500-
NORTHEAST KENTUCKY

CITY           SKY/WX    TMP DP  RH WIND       PRES   REMARKS
LEXINGTON      CLOUDY    21  14  74 SW9       29.79S WCI  11
COVINGTON      LGT SNOW  20  17  88 SW7       29.76R FOG     WCI  11
FRANKFORT      CLOUDY    21  15  78 W8        29.80R WCI  11
$$

KYZ054-064>069-076>088-106>120-091500-
SOUTHEAST KENTUCKY

CITY           SKY/WX    TMP DP  RH WIND       PRES   REMARKS
JACKSON        CLOUDY    20  12  71 W8        29.76S WCI  10
LONDON         LGT SNOW  20  15  81 W9        29.80S WCI   9
SOMERSET       NOT AVBL
MIDDLESBORO    NOT AVBL
MONTICELLO     FLURRIES  21  15  78 W12       29.85S WCI   9
$$




USA.gov is the U.S. government's official web portal to all federal, state and local government web resources and services.